{"data":{"norad_id":28485,"epoch":"2026-09-19T22:40:43.411296Z","epoch_age_seconds":62292,"freshness":"FRESH","line1":"1 28485U 04047A   26262.94494689  .00157352  00000+0  70289-3 0  9994","line2":"2 28485  20.5502 167.9731 0003371 273.4211  86.5852 15.82400899201813","mean_motion":15.82400899,"eccentricity":0.0003371,"inclination_deg":20.5502,"raan_deg":167.9731,"arg_perigee_deg":273.4211,"mean_anomaly_deg":86.5852,"bstar":0.00070289,"rev_number":20181,"period_min":91.000959422483,"perigee_km":321.39401477528,"apogee_km":325.9123617202,"semimajor_km":6701.7901882477,"source":"CELESTRAK","updated_at":"2026-09-20T09:00:47.141970Z"}}